Lebanon, NH

3:32 AM EDT on March 26, 2017 (GMT -0400)
Lebanon Municipal

Weather History for KLEB - March, 2013

Change the Weather History Date:

Monday, March 25, 2013

  Actual Average Record
Temperature  
Mean Temperature 33 °F -  
Max Temperature 46 °F 47 °F 74 °F (1987)
Min Temperature 21 °F 24 °F 0 °F (2014)
Degree Days  
Heating Degree Days 32    
Moisture  
Dew Point 21 °F    
Average Humidity 65    
Maximum Humidity 88    
Minimum Humidity 37    
Precipitation  
Precipitation 0.00 in - - ()
Sea Level Pressure  
Sea Level Pressure 29.68 in    
Wind  
Wind Speed 2 mph (NNW)    
Max Wind Speed 7 mph    
Max Gust Speed -    
Visibility 10 miles    
Events      
Averages and records for this station are not official NWS values.
T = Trace of Precipitation, MM = Missing Value Source: NWS Daily Summary

Daily Weather History Graph

Daily Weather History Graph

Search for Another Location

Airport or City:

Trip Planner

Search our weather history database for the weather conditions in past years. The results will help you decide how hot, cold, wet, or windy it might be!

Date:

Astronomy

Mar. 25, 2013 Rise Set
Actual Time 6:42 AM EDT 7:07 PM EDT
Civil Twilight 6:14 AM EDT 7:36 PM EDT
Nautical Twilight 5:40 AM EDT 8:10 PM EDT
Astronomical Twilight 5:05 AM EDT 8:45 PM EDT
Moon 5:34 PM EDT (3/25) 5:27 AM EDT (3/25)
Length of Visible Light 13h 22m
Length of Day
12h 24m
Waxing Gibbous, 96% of the Moon is Illuminated
Mar 25
Waxing Gibbous
Mar 27
Full
Apr 3
Last Quarter
Apr 10
New
Apr 18
First Quarter

Hourly Weather History & Observations

Time (EDT) Temp. Windchill Dew Point Humidity Pressure Visibility Wind Dir Wind Speed Gust Speed Precip Events Conditions
12:53 AM 21.9 °F - 18.0 °F 85% 29.81 in 10.0 mi Calm Calm - N/A   Clear
1:53 AM 21.0 °F - 17.1 °F 85% 29.81 in 10.0 mi Calm Calm - N/A   Clear
2:53 AM 21.9 °F - 18.0 °F 85% 29.79 in 10.0 mi Calm Calm - N/A   Clear
3:53 AM 21.9 °F - 18.0 °F 85% 29.78 in 10.0 mi Calm Calm - N/A   Clear
4:53 AM 23.0 °F - 19.0 °F 85% 29.76 in 10.0 mi Calm Calm - N/A   Clear
5:53 AM 21.0 °F - 18.0 °F 88% 29.77 in 10.0 mi Calm Calm - N/A   Clear
6:53 AM 21.0 °F - 18.0 °F 88% 29.76 in 10.0 mi Calm Calm - N/A   Clear
7:53 AM 25.0 °F - 19.9 °F 81% 29.77 in 10.0 mi Calm Calm - N/A   Partly Cloudy
8:53 AM 28.0 °F - 21.9 °F 78% 29.77 in 10.0 mi Calm Calm - N/A   Clear
9:23 AM 30.2 °F 26.7 °F 23.0 °F 75% 29.73 in 10.0 mi North 3.5 mph - N/A   Mostly Cloudy
9:53 AM 32.0 °F 27.5 °F 23.0 °F 69% 29.75 in 10.0 mi NNW 4.6 mph - N/A   Mostly Cloudy
10:32 AM 35.6 °F 30.7 °F 24.8 °F 65% 29.70 in 10.0 mi North 5.8 mph - N/A   Partly Cloudy
10:53 AM 37.9 °F 34.4 °F 24.1 °F 57% 29.71 in 10.0 mi North 4.6 mph - N/A   Clear
11:53 AM 39.9 °F 35.8 °F 24.1 °F 53% 29.68 in 10.0 mi NW 5.8 mph - N/A   Clear
12:53 PM 43.0 °F 39.5 °F 25.0 °F 49% 29.65 in 10.0 mi NNW 5.8 mph - N/A   Mostly Cloudy
1:53 PM 44.1 °F 40.8 °F 23.0 °F 43% 29.63 in 10.0 mi NW 5.8 mph - N/A   Overcast
2:53 PM 44.1 °F 42.5 °F 21.0 °F 40% 29.60 in 10.0 mi Variable 3.5 mph - N/A   Overcast
3:53 PM 45.0 °F 41.2 °F 19.9 °F 37% 29.57 in 10.0 mi Variable 6.9 mph - N/A   Mostly Cloudy
4:53 PM 45.0 °F 43.5 °F 21.0 °F 39% 29.56 in 10.0 mi Variable 3.5 mph - N/A   Clear
5:53 PM 43.0 °F 40.3 °F 21.9 °F 43% 29.57 in 10.0 mi Variable 4.6 mph - N/A   Mostly Cloudy
6:53 PM 42.1 °F 40.2 °F 21.0 °F 43% 29.60 in 10.0 mi NE 3.5 mph - N/A   Overcast
7:53 PM 39.9 °F - 21.0 °F 47% 29.60 in 10.0 mi Calm Calm - N/A   Overcast
8:53 PM 37.9 °F 33.5 °F 23.0 °F 55% 29.61 in 10.0 mi Variable 5.8 mph - N/A   Overcast
9:53 PM 33.1 °F - 25.0 °F 72% 29.61 in 10.0 mi Calm Calm - N/A   Overcast
10:53 PM 33.1 °F - 26.1 °F 75% 29.60 in 10.0 mi Calm Calm - N/A   Overcast
11:53 PM 34.0 °F - 24.1 °F 67% 29.60 in 10.0 mi Calm Calm - N/A   Overcast